Date,TemperatureHighF,TemperatureAvgF,TemperatureLowF,DewpointHighF,DewpointAvgF,DewpointLowF,HumidityHigh,HumidityAvg,HumidityLow,PressureMaxIn,PressureMinIn,WindSpeedMaxMPH,WindSpeedAvgMPH,GustSpeedMaxMPH,PrecipitationSumIn
2013-1-1,52.3,34.8,26.4,35.3,26.1,19.6,89,72,42,30.13,30.08,2,0,6,0.00
2013-1-2,58.8,34.8,24.3,35.3,24.4,14.8,92,70,21,30.13,30.03,0,0,0,0.00
2013-1-3,66.2,36.0,25.9,49.6,28.8,23.1,94,78,37,30.12,29.64,0,0,0,0.00
2013-1-4,59.4,37.7,27.0,37.2,28.9,24.2,95,75,29,29.99,29.91,4,0,5,0.01
2013-1-5,56.7,39.1,29.7,39.1,32.2,24.6,96,80,33,29.97,29.81,5,0,7,0.02
2013-1-6,47.5,39.5,32.7,39.2,36.2,30.9,96,88,69,29.88,29.79,5,0,5,0.05
2013-1-7,59.7,41.2,30.4,41.7,34.9,28.9,96,81,38,29.93,29.85,6,0,7,0.00
2013-1-8,64.4,44.3,34.3,45.8,38.9,32.5,99,84,44,29.93,29.86,0,0,0,0.00
2013-1-9,66.2,41.4,31.6,49.6,37.1,29.9,99,86,51,29.91,29.67,6,0,11,0.51
2013-1-10,66.2,32.0,25.9,49.6,27.4,22.3,95,84,55,30.00,29.77,3,0,9,0.06
2013-1-11,43.2,30.4,22.6,31.5,22.7,18.3,90,75,44,30.07,29.99,4,0,7,0.01
2013-1-12,50.5,29.0,18.1,22.1,15.9,5.4,80,62,20,30.06,29.99,4,0,6,0.00
2013-1-13,46.4,28.2,16.5,21.1,7.9,-4.1,81,48,17,30.09,30.01,4,0,9,0.00
2013-1-14,52.0,32.0,19.2,20.4,11.6,2.5,69,47,17,30.24,30.07,4,0,8,0.00
2013-1-15,66.2,35.0,23.7,49.6,23.0,17.2,85,64,30,30.27,29.48,2,0,4,0.00
2013-1-16,62.4,37.6,25.5,31.7,24.4,19.5,89,66,20,29.96,29.83,4,0,5,0.00
2013-1-17,68.9,39.4,24.3,35.2,24.5,15.1,92,65,13,29.84,29.75,5,0,5,0.00
2013-1-18,70.3,40.7,25.3,33.8,24.9,15.4,94,65,12,29.82,29.74,3,0,5,0.00
2013-1-19,68.5,41.7,26.6,49.6,27.2,17.1,94,67,14,29.97,29.60,5,0,5,0.00
2013-1-20,70.0,41.6,26.8,36.9,28.0,15.1,99,70,12,29.94,29.83,4,0,4,0.00
2013-1-21,68.4,42.6,27.5,34.5,28.5,17.8,96,67,15,29.89,29.84,4,0,6,0.00
2013-1-22,69.8,45.1,27.9,35.8,27.6,14.9,91,61,12,29.87,29.76,5,0,5,0.00
2013-1-23,62.6,46.4,36.5,45.4,33.1,-11.6,97,66,10,29.82,29.71,6,0,8,0.13
2013-1-24,66.2,49.7,44.8,52.6,47.9,44.0,99,94,55,29.96,29.67,0,0,3,0.06
2013-1-25,63.1,52.7,48.9,57.2,50.7,48.7,99,93,72,29.96,29.82,5,0,7,0.08
2013-1-26,66.9,49.8,37.8,50.7,44.6,35.7,99,84,55,29.94,29.79,7,1,9,0.16
2013-1-27,46.9,37.5,29.7,40.9,34.0,28.9,99,88,61,30.05,29.94,4,0,6,0.35
2013-1-28,66.2,37.1,27.1,49.6,29.7,25.4,98,77,40,30.06,29.74,7,1,9,0.00
2013-1-29,66.2,40.4,29.3,49.6,33.8,28.1,97,80,43,30.07,29.59,6,0,7,0.00
2013-1-30,67.1,44.1,32.4,43.7,37.4,31.4,99,81,35,30.00,29.93,5,0,8,0.00
2013-1-31,65.5,44.1,30.7,45.4,37.5,30.5,99,82,37,29.97,29.89,5,0,8,0.00